Weather History for Worland, WY

Change the Weather History Date:

Saturday, November 16, 2013

  Actual Average Record
Temperature  
Mean Temperature 37 °F 30 °F  
Max Temperature 51 °F 44 °F 65 °F (2001)
Min Temperature 23 °F 17 °F -22 °F (2014)
Degree Days  
Heating Degree Days 28 35  
Month to date heating degree days 443 484  
Since 1 July heating degree days 1276 1346  
Cooling Degree Days 0 0  
Month to date cooling degree days 0 0  
Year to date cooling degree days 852 535  
Moisture  
Dew Point 21 °F    
Average Humidity 52    
Maximum Humidity 81    
Minimum Humidity 23    
Precipitation  
Precipitation T in 0.01 in 0.15 in (1969)
Month to date precipitation T 0.20  
Year to date precipitation 7.62 7.19  
Sea Level Pressure  
Sea Level Pressure 29.38 in    
Wind  
Wind Speed 6 mph (NW)    
Max Wind Speed 25 mph    
Max Gust Speed 31 mph    
Visibility 9 miles    
Events Snow    
T = Trace of Precipitation, MM = Missing Value Source: NWS Daily Summary

Daily Weather History Graph

Daily Weather History Graph

Search for Another Location

Airport:

Trip Planner

Search our weather history database for the weather conditions in past years. The results will help you decide how hot, cold, wet, or windy it might be!

Date:

Astronomy

Nov. 16, 2013 Rise Set
Actual Time 7:08 AM MST 4:44 PM MST
Civil Twilight 6:37 AM MST 5:15 PM MST
Nautical Twilight 6:02 AM MST 5:50 PM MST
Astronomical Twilight 5:27 AM MST 6:24 PM MST
Moon 4:22 PM MST (11/16) 6:05 AM MST (11/16)
Length of Visible Light 10h 38m
Length of Day
9h 36m
Waxing Gibbous, 99% of the Moon is Illuminated
Nov 16
Waxing Gibbous
Nov 17
Full
Nov 25
Last Quarter
Dec 2
New
Dec 9
First Quarter

Hourly Weather History & Observations

Time (MST) Temp. Windchill Dew Point Humidity Pressure Visibility Wind Dir Wind Speed Gust Speed Precip Events Conditions
12:53 AM 26.1 °F - 17.1 °F 69% 29.41 in 10.0 mi Calm Calm - N/A   Clear
1:53 AM 24.1 °F - 17.1 °F 75% 29.40 in 10.0 mi Calm Calm - N/A   Mostly Cloudy
2:53 AM 27.0 °F 23.0 °F 18.0 °F 69% 29.38 in 10.0 mi Variable 3.5 mph - N/A   Scattered Clouds
3:53 AM 27.0 °F - 19.9 °F 75% 29.36 in 10.0 mi Calm Calm - N/A   Overcast
4:53 AM 28.9 °F 25.2 °F 19.0 °F 67% 29.37 in 10.0 mi NNE 3.5 mph - N/A   Overcast
5:53 AM 28.0 °F 24.2 °F 21.0 °F 75% 29.37 in 10.0 mi NE 3.5 mph - N/A   Overcast
6:53 AM 27.0 °F - 21.0 °F 78% 29.37 in 10.0 mi Calm Calm - N/A   Partly Cloudy
7:53 AM 27.0 °F 19.5 °F 21.9 °F 81% 29.38 in 10.0 mi SSW 6.9 mph - N/A   Clear
8:53 AM 30.0 °F 25.2 °F 21.9 °F 72% 29.37 in 10.0 mi SE 4.6 mph - N/A   Clear
9:53 AM 35.1 °F 28.6 °F 21.0 °F 57% 29.36 in 10.0 mi SE 8.1 mph - N/A   Clear
10:53 AM 42.1 °F 37.7 °F 19.0 °F 40% 29.34 in 10.0 mi SSW 6.9 mph - N/A   Clear
11:53 AM 46.0 °F 44.8 °F 17.1 °F 31% 29.29 in 10.0 mi SW 3.5 mph - N/A   Clear
12:53 PM 48.0 °F - 16.0 °F 28% 29.27 in 10.0 mi South 10.4 mph - N/A   Partly Cloudy
1:53 PM 50.0 °F - 16.0 °F 26% 29.27 in 10.0 mi Variable 3.5 mph - N/A   Clear
2:53 PM 48.0 °F - 12.9 °F 24% 29.27 in 10.0 mi North 5.8 mph - N/A   Scattered Clouds
3:53 PM 45.0 °F 41.2 °F 17.1 °F 33% 29.30 in 10.0 mi North 6.9 mph - N/A   Partly Cloudy
4:53 PM 41.0 °F 37.1 °F 19.0 °F 41% 29.33 in 10.0 mi North 5.8 mph - N/A   Mostly Cloudy
5:53 PM 37.9 °F 30.9 °F 21.0 °F 51% 29.37 in 10.0 mi SSW 10.4 mph - N/A   Partly Cloudy
6:53 PM 37.0 °F 31.6 °F 19.0 °F 48% 29.38 in 10.0 mi SSW 6.9 mph - N/A   Clear
7:53 PM 30.9 °F 25.2 °F 19.9 °F 64% 29.40 in 10.0 mi SSW 5.8 mph - N/A   Clear
8:53 PM 28.0 °F 22.8 °F 18.0 °F 66% 29.43 in 10.0 mi South 4.6 mph - N/A   Clear
9:53 PM 33.1 °F 21.5 °F 28.0 °F 82% 29.49 in 3.0 mi NNW 19.6 mph 31.1 mph 0.00 in Snow Light Snow
9:57 PM 32.0 °F 20.8 °F 28.9 °F 88% 29.44 in 1.8 mi NNW 17.3 mph 31.1 mph 0.00 in Snow Light Snow
10:04 PM 30.9 °F 20.2 °F 28.9 °F 92% 29.44 in 1.2 mi North 15.0 mph - 0.00 in Snow Light Snow
10:15 PM 30.9 °F 22.8 °F 30.0 °F 96% 29.43 in 3.0 mi NNE 9.2 mph - 0.00 in Snow Light Snow
10:35 PM 30.9 °F 23.5 °F 28.9 °F 92% 29.45 in 10.0 mi North 8.1 mph - 0.00 in   Overcast
10:53 PM 32.0 °F 24.8 °F 28.0 °F 85% 29.50 in 10.0 mi North 8.1 mph - 0.00 in   Overcast
11:53 PM 30.9 °F 25.2 °F 27.0 °F 85% 29.53 in 10.0 mi WNW 5.8 mph - N/A   Mostly Cloudy